NORTHEAST SUFFOLK  -  Frost Advisory Frost Advisory     Special Weather Statement Special Weather Statement        NORTHERN NASSAU  -  Frost Advisory Frost Advisory     Special Weather Statement Special Weather Statement        NORTHWEST SUFFOLK  -  Frost Advisory Frost Advisory     Special Weather Statement Special Weather Statement        SOUTHEAST SUFFOLK  -  Frost Advisory Frost Advisory     Special Weather Statement Special Weather Statement        SOUTHERN NASSAU  -  Frost Advisory Frost Advisory     Special Weather Statement Special Weather Statement        SOUTHWEST SUFFOLK  -  Frost Advisory Frost Advisory     Special Weather Statement Special Weather Statement        NORTHERN QUEENS  -  Special Weather Statement Special Weather Statement        SOUTHERN QUEENS  -  Special Weather Statement Special Weather Statement      

Active alerts

Northern Nassau
  Details for Northern Nassau Frost Advisory  +1 additional alert
Southern Nassau
  Details for Southern Nassau Frost Advisory  +1 additional alert
Northwest Suffolk
  Details for Northwest Suffolk Frost Advisory  +1 additional alert
Southwest Suffolk
  Details for Southwest Suffolk Frost Advisory  +1 additional alert
Northeast Suffolk
  Details for Northeast Suffolk Frost Advisory  +1 additional alert
Southeast Suffolk
  Details for Southeast Suffolk Frost Advisory  +1 additional alert
Northern Queens
  Details for Northern Queens Special Weather Statement
Southern Queens
  Details for Southern Queens Special Weather Statement


WXM80 ListenWXM80 Stop

You find our weather info also at:

UK Metoffice

WeatherCloud

Weather Underground

Northeastern Weather Network

AWEKAS

Citizen Weather Observer Program (CWOP)

HAMweather, WeatherForYou, PWS Weather


Weather Underground History page Text

Daily Summary for December 7, 2016 Units:  English    Metric   Both
« Previous Day
Next Day »
Daily Weekly Monthly Yearly Custom
  High: Low: Average:
Temperature: 43.9 °F 38.2 °F 42 °F
Dew Point: 42.0 °F 35.6 °F 39.6 °F
Humidity: 96 % 79 % 91 %
Wind Speed: 11.8 mph 0.0 mph 3.5 mph
Wind Gust: 23.0 mph - -
Wind:- - SSE
Pressure: 30.01 in 29.81 in -
Precipitation: 0.00 in    
Historical Graphs
 
 
Tabular Data for December 7, 2016
Time Temperature Dew Point Pressure Wind Wind Speed Wind Gust Humidity Rainfall Rate (Hourly)
00:01 41.0 °F 39.1 °F 29.83 in East 9.5 mph 16.1 mph 93 % 0.00 in
00:06 41.0 °F 39.1 °F 29.83 in ESE 10.8 mph 14.0 mph 93 % 0.00 in
00:11 41.0 °F 38.9 °F 29.83 in East 7.8 mph 12.7 mph 92 % 0.00 in
00:16 41.0 °F 38.9 °F 29.83 in East 8.6 mph 10.4 mph 92 % 0.00 in
00:21 41.1 °F 39.2 °F 29.83 in East 8.2 mph 11.0 mph 93 % 0.00 in
00:26 41.2 °F 39.3 °F 29.83 in East 9.4 mph 12.7 mph 93 % 0.00 in
00:31 41.2 °F 39.3 °F 29.83 in East 10.3 mph 14.0 mph 93 % 0.00 in
00:37 41.4 °F 39.5 °F 29.83 in East 9.6 mph 14.0 mph 93 % 0.00 in
00:42 41.4 °F 39.3 °F 29.83 in East 9.5 mph 15.0 mph 92 % 0.00 in
00:47 41.5 °F 39.6 °F 29.83 in East 10.4 mph 13.8 mph 93 % 0.00 in
00:52 41.6 °F 39.4 °F 29.83 in East 9.8 mph 12.7 mph 92 % 0.00 in
00:57 41.6 °F 39.4 °F 29.83 in East 10.3 mph 12.7 mph 92 % 0.00 in
01:02 41.7 °F 39.5 °F 29.83 in East 7.9 mph 11.5 mph 92 % 0.00 in
01:07 41.8 °F 39.6 °F 29.83 in East 9.8 mph 14.0 mph 92 % 0.00 in
01:12 41.8 °F 39.6 °F 29.82 in East 11.7 mph 13.8 mph 92 % 0.00 in
01:17 41.8 °F 39.6 °F 29.82 in East 8.8 mph 13.8 mph 92 % 0.00 in
01:22 41.9 °F 39.7 °F 29.82 in East 8.7 mph 9.2 mph 92 % 0.00 in
01:28 41.9 °F 40.0 °F 29.82 in East 8.2 mph 13.8 mph 93 % 0.00 in
01:34 42.0 °F 40.1 °F 29.81 in East 8.9 mph 13.8 mph 93 % 0.00 in
01:39 42.1 °F 40.2 °F 29.81 in East 9.3 mph 13.8 mph 93 % 0.00 in
01:44 42.2 °F 40.3 °F 29.81 in East 9.0 mph 12.7 mph 93 % 0.00 in
01:49 42.2 °F 40.3 °F 29.81 in East 7.8 mph 11.0 mph 93 % 0.00 in
01:54 42.3 °F 40.4 °F 29.81 in East 10.5 mph 16.1 mph 93 % 0.00 in
01:59 42.4 °F 40.5 °F 29.81 in East 11.1 mph 13.0 mph 93 % 0.00 in
02:04 42.4 °F 40.5 °F 29.81 in East 7.3 mph 11.5 mph 93 % 0.00 in
02:09 42.5 °F 40.6 °F 29.82 in ENE 9.7 mph 13.8 mph 93 % 0.00 in
02:14 42.5 °F 40.6 °F 29.82 in East 8.7 mph 13.8 mph 93 % 0.00 in
02:19 42.6 °F 40.7 °F 29.82 in ENE 10.0 mph 11.5 mph 93 % 0.00 in
02:25 42.7 °F 41.1 °F 29.83 in ENE 10.0 mph 15.0 mph 94 % 0.00 in
02:30 42.7 °F 40.8 °F 29.82 in East 8.0 mph 15.0 mph 93 % 0.00 in
02:35 42.6 °F 40.7 °F 29.82 in East 7.0 mph 12.0 mph 93 % 0.00 in
02:40 42.7 °F 41.1 °F 29.82 in ENE 9.0 mph 15.0 mph 94 % 0.00 in
02:45 42.5 °F 40.9 °F 29.83 in ENE 10.8 mph 16.1 mph 94 % 0.01 in
02:50 42.3 °F 40.7 °F 29.83 in ENE 10.0 mph 15.0 mph 94 % 0.00 in
02:55 42.2 °F 40.9 °F 29.83 in NE 7.6 mph 15.0 mph 95 % 0.01 in
03:00 42.1 °F 40.8 °F 29.83 in ENE 11.8 mph 17.3 mph 95 % 0.01 in
03:07 41.8 °F 40.5 °F 29.82 in ENE 10.6 mph 23.0 mph 95 % 0.02 in
03:12 41.7 °F 40.4 °F 29.82 in East 8.6 mph 15.0 mph 95 % 0.02 in
03:17 41.6 °F 40.3 °F 29.82 in East 11.0 mph 16.1 mph 95 % 0.02 in
03:25 41.5 °F 40.2 °F 29.82 in ENE 11.0 mph 17.3 mph 95 % 0.02 in
03:30 41.4 °F 40.1 °F 29.83 in East 11.0 mph 16.1 mph 95 % 0.02 in
03:35 41.4 °F 40.1 °F 29.85 in ENE 7.4 mph 13.8 mph 95 % 0.02 in
03:40 41.5 °F 40.2 °F 29.86 in ENE 7.9 mph 12.7 mph 95 % 0.01 in
03:46 41.5 °F 40.2 °F 29.88 in ENE 5.8 mph 13.8 mph 95 % 0.01 in
03:52 41.5 °F 40.2 °F 29.88 in ENE 7.1 mph 11.5 mph 95 % 0.01 in
03:57 41.5 °F 40.2 °F 29.88 in North 3.8 mph 8.1 mph 95 % 0.01 in
04:02 41.4 °F 40.1 °F 29.87 in NNE 5.8 mph 9.2 mph 95 % 0.01 in
04:07 41.2 °F 39.9 °F 29.87 in NNE 4.0 mph 9.2 mph 95 % 0.01 in
04:12 41.0 °F 39.7 °F 29.87 in NE 5.9 mph 11.5 mph 95 % 0.02 in
04:17 40.9 °F 39.6 °F 29.87 in NNE 3.4 mph 5.8 mph 95 % 0.02 in
04:22 40.7 °F 39.4 °F 29.87 in NNE 4.7 mph 10.4 mph 95 % 0.02 in
04:27 40.6 °F 39.3 °F 29.88 in NNE 5.4 mph 6.9 mph 95 % 0.02 in
04:32 40.5 °F 39.2 °F 29.89 in NE 5.1 mph 8.0 mph 95 % 0.02 in
04:38 40.5 °F 39.2 °F 29.88 in NE 5.2 mph 6.9 mph 95 % 0.02 in
04:43 40.5 °F 39.2 °F 29.88 in ENE 4.7 mph 9.2 mph 95 % 0.02 in
04:48 40.5 °F 39.2 °F 29.87 in ENE 2.8 mph 3.5 mph 95 % 0.02 in
04:53 40.4 °F 39.1 °F 29.87 in NE 3.1 mph 4.6 mph 95 % 0.03 in
04:58 40.5 °F 39.2 °F 29.87 in ENE 4.4 mph 9.2 mph 95 % 0.02 in
05:03 40.5 °F 39.2 °F 29.87 in ENE 3.5 mph 7.0 mph 95 % 0.02 in
05:08 40.5 °F 39.4 °F 29.88 in NNE 3.4 mph 4.0 mph 96 % 0.02 in
05:13 40.5 °F 39.4 °F 29.87 in East 7.2 mph 9.0 mph 96 % 0.01 in
05:18 40.5 °F 39.4 °F 29.88 in ENE 5.4 mph 9.2 mph 96 % 0.01 in
05:24 40.5 °F 39.4 °F 29.88 in East 3.8 mph 8.1 mph 96 % 0.01 in
05:29 40.6 °F 39.5 °F 29.89 in ENE 3.9 mph 9.2 mph 96 % 0.01 in
05:34 40.6 °F 39.5 °F 29.90 in East 2.4 mph 9.2 mph 96 % 0.01 in
05:39 40.6 °F 39.5 °F 29.90 in NNE 4.0 mph 5.8 mph 96 % 0.01 in
05:44 40.6 °F 39.5 °F 29.90 in ENE 6.1 mph 11.5 mph 96 % 0.01 in
05:49 40.6 °F 39.5 °F 29.90 in ENE 3.2 mph 7.0 mph 96 % 0.01 in
05:54 40.6 °F 39.5 °F 29.89 in NE 3.0 mph 4.6 mph 96 % 0.00 in
05:59 40.6 °F 39.5 °F 29.90 in ENE 5.9 mph 11.5 mph 96 % 0.00 in
06:09 40.6 °F 39.5 °F 29.90 in ENE 7.9 mph 9.2 mph 96 % 0.00 in
06:15 40.5 °F 39.4 °F 29.90 in ENE 5.6 mph 10.4 mph 96 % 0.00 in
06:20 40.5 °F 39.4 °F 29.90 in ENE 8.0 mph 12.0 mph 96 % 0.00 in
06:25 40.5 °F 39.4 °F 29.90 in ENE 6.0 mph 12.0 mph 96 % 0.00 in
06:30 40.5 °F 39.4 °F 29.91 in ENE 5.6 mph 11.5 mph 96 % 0.00 in
06:35 40.5 °F 39.4 °F 29.91 in ENE 6.0 mph 11.0 mph 96 % 0.00 in
06:40 40.5 °F 39.4 °F 29.91 in ENE 7.0 mph 12.0 mph 96 % 0.00 in
06:45 40.5 °F 39.4 °F 29.91 in ENE 5.0 mph 9.0 mph 96 % 0.00 in
06:50 40.5 °F 39.5 °F 29.91 in ENE 6.0 mph 9.0 mph 96 % 0.00 in
06:55 40.5 °F 39.4 °F 29.92 in ENE 3.0 mph 12.0 mph 96 % 0.00 in
07:00 40.5 °F 39.4 °F 29.91 in ENE 6.8 mph 9.2 mph 96 % 0.00 in
07:10 40.6 °F 39.5 °F 29.91 in ENE 3.0 mph 12.0 mph 96 % 0.00 in
07:15 40.6 °F 39.6 °F 29.92 in ENE 6.0 mph 10.0 mph 96 % 0.00 in
07:20 40.7 °F 39.6 °F 29.92 in ENE 6.0 mph 10.0 mph 96 % 0.00 in
07:25 40.7 °F 39.6 °F 29.92 in ENE 8.0 mph 12.0 mph 96 % 0.00 in
07:30 40.8 °F 39.7 °F 29.91 in ENE 8.8 mph 11.5 mph 96 % 0.00 in
07:35 40.9 °F 39.8 °F 29.91 in ENE 7.0 mph 14.0 mph 96 % 0.00 in
07:40 40.9 °F 39.8 °F 29.91 in ENE 7.0 mph 10.0 mph 96 % 0.00 in
07:45 41.0 °F 39.9 °F 29.91 in ENE 8.0 mph 12.0 mph 96 % 0.00 in
07:50 41.0 °F 39.9 °F 29.91 in ENE 7.0 mph 12.0 mph 96 % 0.00 in
07:55 41.1 °F 40.0 °F 29.91 in ENE 9.0 mph 13.0 mph 96 % 0.00 in
08:00 41.0 °F 39.7 °F 29.92 in ENE 7.6 mph 12.7 mph 95 % 0.00 in
08:05 41.0 °F 39.7 °F 29.92 in ENE 6.0 mph 13.0 mph 95 % 0.00 in
08:10 41.0 °F 39.7 °F 29.93 in ENE 8.0 mph 13.0 mph 95 % 0.00 in
08:15 41.0 °F 39.7 °F 29.93 in ENE 6.0 mph 13.0 mph 95 % 0.00 in
08:20 41.1 °F 39.8 °F 29.92 in ENE 7.0 mph 12.0 mph 95 % 0.00 in
08:25 41.1 °F 39.8 °F 29.93 in ENE 8.0 mph 12.0 mph 95 % 0.00 in
08:30 41.1 °F 39.8 °F 29.93 in ENE 3.0 mph 10.0 mph 95 % 0.00 in
08:35 41.1 °F 39.8 °F 29.94 in ENE 8.0 mph 12.0 mph 95 % 0.00 in
08:40 41.1 °F 39.8 °F 29.95 in ENE 6.0 mph 11.0 mph 95 % 0.00 in
08:45 41.2 °F 39.9 °F 29.95 in NE 2.0 mph 7.0 mph 95 % 0.00 in
08:50 41.2 °F 39.9 °F 29.96 in NE 2.0 mph 6.0 mph 95 % 0.00 in
08:55 41.2 °F 39.9 °F 29.96 in NE 3.0 mph 7.0 mph 95 % 0.00 in
09:05 41.3 °F 40.0 °F 29.96 in NE 2.0 mph 7.0 mph 95 % 0.00 in
09:10 41.4 °F 40.1 °F 29.96 in ENE 5.0 mph 9.0 mph 95 % 0.00 in
09:15 41.4 °F 40.1 °F 29.97 in ENE 2.0 mph 7.0 mph 95 % 0.00 in
09:20 41.5 °F 40.2 °F 29.97 in ENE 5.0 mph 7.0 mph 95 % 0.00 in
09:25 41.6 °F 40.3 °F 29.97 in ENE 2.0 mph 7.0 mph 95 % 0.00 in
09:30 41.7 °F 40.4 °F 29.97 in ENE 3.0 mph 7.0 mph 95 % 0.00 in
09:35 41.8 °F 40.5 °F 29.97 in ENE 3.6 mph 8.1 mph 95 % 0.00 in
09:40 41.9 °F 40.6 °F 29.97 in ENE 3.0 mph 8.0 mph 95 % 0.00 in
09:45 42.0 °F 40.7 °F 29.97 in ENE 6.0 mph 9.0 mph 95 % 0.00 in
09:50 42.1 °F 40.8 °F 29.97 in ENE 2.5 mph 4.6 mph 95 % 0.00 in
09:55 42.2 °F 40.9 °F 29.98 in ENE 3.0 mph 9.0 mph 95 % 0.00 in
10:00 42.2 °F 40.6 °F 29.97 in ENE 1.3 mph 6.9 mph 94 % 0.00 in
10:05 42.3 °F 40.7 °F 29.97 in ENE 2.6 mph 5.0 mph 94 % 0.00 in
10:10 42.3 °F 40.7 °F 29.97 in NE 2.7 mph 5.0 mph 94 % 0.00 in
10:15 42.3 °F 40.7 °F 29.97 in NE 3.1 mph 5.8 mph 94 % 0.00 in
10:20 42.3 °F 40.7 °F 29.97 in ENE 0.5 mph 2.3 mph 94 % 0.00 in
10:25 42.4 °F 40.8 °F 29.97 in ENE 0.6 mph 2.0 mph 94 % 0.00 in
10:30 42.5 °F 40.9 °F 29.97 in North 2.6 mph 4.6 mph 94 % 0.00 in
10:35 42.5 °F 40.9 °F 29.97 in NNE 2.9 mph 5.0 mph 94 % 0.00 in
10:40 42.6 °F 41.3 °F 29.97 in NNE 2.6 mph 3.5 mph 95 % 0.00 in
10:51 42.8 °F 41.5 °F 29.95 in North 3.4 mph 5.8 mph 95 % 0.00 in
10:56 42.8 °F 41.2 °F 29.95 in North 2.7 mph 4.6 mph 94 % 0.00 in
11:01 42.9 °F 41.3 °F 29.96 in NNE 3.8 mph 4.6 mph 94 % 0.00 in
11:06 43.0 °F 41.4 °F 29.96 in NNE 3.1 mph 6.0 mph 94 % 0.00 in
11:11 43.0 °F 41.4 °F 29.95 in NNE 1.7 mph 4.6 mph 94 % 0.00 in
11:21 43.1 °F 41.5 °F 29.95 in North 0.9 mph 3.0 mph 94 % 0.00 in
11:26 43.2 °F 41.9 °F 29.94 in NNE 1.3 mph 3.5 mph 95 % 0.00 in
11:31 43.3 °F 42.0 °F 29.94 in ENE 3.7 mph 4.0 mph 95 % 0.00 in
11:37 43.3 °F 41.7 °F 29.93 in NE 2.2 mph 4.6 mph 94 % 0.00 in
11:42 43.3 °F 41.7 °F 29.93 in ENE 2.4 mph 5.8 mph 94 % 0.00 in
11:47 43.3 °F 41.7 °F 29.93 in ENE 2.6 mph 4.6 mph 94 % 0.00 in
11:52 43.3 °F 41.7 °F 29.93 in NE 2.4 mph 5.8 mph 94 % 0.00 in
11:57 43.4 °F 41.8 °F 29.93 in North 1.1 mph 3.5 mph 94 % 0.00 in
12:02 43.5 °F 41.9 °F 29.94 in ENE 1.3 mph 3.5 mph 94 % 0.00 in
12:07 43.5 °F 41.9 °F 29.93 in NNE 2.1 mph 3.5 mph 94 % 0.00 in
12:12 43.5 °F 41.6 °F 29.93 in North 3.0 mph 4.6 mph 93 % 0.00 in
12:17 43.5 °F 41.6 °F 29.93 in North 1.6 mph 3.5 mph 93 % 0.00 in
12:22 43.5 °F 41.6 °F 29.94 in North 0.6 mph 3.0 mph 93 % 0.00 in
12:28 43.5 °F 41.6 °F 29.94 in North 1.1 mph 3.5 mph 93 % 0.00 in
12:33 43.4 °F 41.5 °F 29.93 in North 0.5 mph 1.2 mph 93 % 0.00 in
12:38 43.4 °F 41.5 °F 29.93 in NNW 1.1 mph 3.5 mph 93 % 0.00 in
12:43 43.4 °F 41.5 °F 29.93 in NNW 2.6 mph 3.5 mph 93 % 0.00 in
12:48 43.4 °F 41.5 °F 29.93 in NNW 0.4 mph 2.0 mph 93 % 0.00 in
12:53 43.5 °F 41.6 °F 29.93 in NNW 1.5 mph 3.5 mph 93 % 0.00 in
12:58 43.6 °F 41.7 °F 29.92 in NNW 1.4 mph 3.5 mph 93 % 0.00 in
13:03 43.5 °F 41.3 °F 29.92 in NNW 0.1 mph 2.3 mph 92 % 0.00 in
13:08 43.6 °F 41.4 °F 29.93 in North 0.1 mph 2.3 mph 92 % 0.00 in
13:13 43.6 °F 41.4 °F 29.93 in NNW 0.3 mph 1.2 mph 92 % 0.00 in
13:18 43.5 °F 41.3 °F 29.93 in NNW 0.3 mph 2.3 mph 92 % 0.00 in
13:23 43.5 °F 41.3 °F 29.93 in NNW 1.7 mph 2.3 mph 92 % 0.00 in
13:29 43.5 °F 41.3 °F 29.94 in NNW 0.7 mph 1.2 mph 92 % 0.00 in
13:34 43.5 °F 41.3 °F 29.94 in NNW 0.1 mph   92 % 0.00 in
13:39 43.4 °F 41.2 °F 29.93 in Calm   3.5 mph 92 % 0.00 in
13:44 43.4 °F 41.2 °F 29.93 in Calm   1.2 mph 92 % 0.00 in
13:49 43.4 °F 41.2 °F 29.93 in NW 0.2 mph 1.2 mph 92 % 0.00 in
13:54 43.4 °F 41.2 °F 29.93 in NW 0.2 mph 1.2 mph 92 % 0.00 in
13:59 43.5 °F 41.3 °F 29.94 in NW 1.3 mph 3.5 mph 92 % 0.00 in
14:04 43.5 °F 41.3 °F 29.94 in NW 0.5 mph 3.5 mph 92 % 0.00 in
14:09 43.5 °F 41.0 °F 29.94 in WNW 2.8 mph 3.5 mph 91 % 0.00 in
14:14 43.4 °F 40.9 °F 29.95 in NW 2.0 mph 3.5 mph 91 % 0.00 in
14:20 43.4 °F 40.9 °F 29.95 in NW 1.0 mph 4.0 mph 91 % 0.00 in
14:25 43.4 °F 40.9 °F 29.95 in NW 2.0 mph 4.0 mph 91 % 0.00 in
14:30 43.4 °F 40.9 °F 29.95 in NW 1.0 mph 4.0 mph 91 % 0.00 in
14:35 43.4 °F 41.2 °F 29.95 in NW 1.0 mph 3.0 mph 92 % 0.00 in
14:40 43.4 °F 41.2 °F 29.95 in NW 2.0 mph 3.0 mph 92 % 0.00 in
14:45 43.4 °F 41.2 °F 29.95 in West 1.0 mph 4.0 mph 92 % 0.00 in
14:50 43.4 °F 41.2 °F 29.95 in Calm   2.0 mph 92 % 0.00 in
14:55 43.4 °F 41.2 °F 29.95 in WSW 1.0 mph 3.0 mph 92 % 0.00 in
15:00 43.5 °F 41.3 °F 29.95 in WSW 2.9 mph 4.0 mph 92 % 0.00 in
15:05 43.5 °F 41.3 °F 29.96 in SW 1.4 mph 3.5 mph 92 % 0.00 in
15:10 43.6 °F 41.4 °F 29.97 in SW 2.1 mph 3.5 mph 92 % 0.00 in
15:15 43.5 °F 41.0 °F 29.97 in West 1.0 mph 2.3 mph 91 % 0.00 in
15:20 43.5 °F 41.0 °F 29.96 in NNW 0.5 mph 3.5 mph 91 % 0.00 in
15:25 43.5 °F 41.0 °F 29.97 in West 0.4 mph 3.5 mph 91 % 0.00 in
15:30 43.5 °F 41.0 °F 29.97 in West 0.9 mph 2.0 mph 91 % 0.00 in
15:35 43.5 °F 41.0 °F 29.97 in Calm     91 % 0.00 in
15:40 43.6 °F 41.1 °F 29.96 in WNW 0.8 mph 2.3 mph 91 % 0.00 in
15:45 43.6 °F 41.1 °F 29.96 in West 0.8 mph 3.5 mph 91 % 0.00 in
15:50 43.6 °F 41.1 °F 29.96 in West 0.4 mph 2.0 mph 91 % 0.00 in
15:56 43.6 °F 41.4 °F 29.96 in West 0.1 mph 1.0 mph 92 % 0.00 in
16:01 43.6 °F 41.4 °F 29.96 in Calm   2.3 mph 92 % 0.00 in
16:06 43.6 °F 41.4 °F 29.96 in WSW 1.2 mph 3.5 mph 92 % 0.00 in
16:11 43.6 °F 41.1 °F 29.97 in WSW 3.7 mph 4.6 mph 91 % 0.00 in
16:16 43.6 °F 41.1 °F 29.97 in WSW 0.3 mph 1.2 mph 91 % 0.00 in
16:21 43.6 °F 41.1 °F 29.97 in WSW 2.5 mph 3.5 mph 91 % 0.00 in
16:26 43.6 °F 41.1 °F 29.97 in WNW 3.8 mph 5.8 mph 91 % 0.00 in
16:31 43.6 °F 41.1 °F 29.99 in WSW 1.9 mph 3.5 mph 91 % 0.00 in
16:36 43.6 °F 41.1 °F 29.99 in Calm     91 % 0.00 in
16:47 43.6 °F 41.1 °F 29.99 in West 4.2 mph 5.0 mph 91 % 0.00 in
16:52 43.6 °F 41.1 °F 29.99 in WSW 3.0 mph 4.6 mph 91 % 0.00 in
16:57 43.6 °F 40.9 °F 30.00 in WNW 2.1 mph 3.5 mph 90 % 0.00 in
17:07 43.6 °F 40.3 °F 30.00 in WNW 3.6 mph 9.2 mph 88 % 0.00 in
17:12 43.7 °F 40.4 °F 30.00 in WSW 2.0 mph 5.0 mph 88 % 0.00 in
17:17 43.7 °F 40.4 °F 30.00 in WSW 2.2 mph 5.8 mph 88 % 0.00 in
17:22 43.8 °F 40.8 °F 30.00 in WSW 0.3 mph 1.2 mph 89 % 0.00 in
17:27 43.8 °F 40.8 °F 30.00 in West 1.7 mph 4.6 mph 89 % 0.00 in
17:33 43.8 °F 40.5 °F 30.00 in WNW 2.0 mph 5.8 mph 88 % 0.00 in
17:38 43.7 °F 39.8 °F 30.01 in NW 3.2 mph 7.0 mph 86 % 0.00 in
17:43 43.7 °F 39.5 °F 30.01 in WNW 3.0 mph 5.0 mph 85 % 0.00 in
17:48 43.7 °F 39.2 °F 30.01 in WNW 3.4 mph 5.8 mph 84 % 0.00 in
17:53 43.8 °F 39.3 °F 30.01 in NW 3.1 mph 5.8 mph 84 % 0.00 in
17:58 43.8 °F 39.3 °F 30.01 in WNW 2.1 mph 3.5 mph 84 % 0.00 in
18:03 43.8 °F 39.0 °F 30.01 in NW 1.0 mph 3.5 mph 83 % 0.00 in
18:08 43.9 °F 39.1 °F 30.00 in WNW 0.7 mph 4.6 mph 83 % 0.00 in
18:13 43.9 °F 39.1 °F 30.00 in WNW 2.3 mph 4.6 mph 83 % 0.00 in
18:18 43.9 °F 39.1 °F 30.00 in WNW 1.4 mph 3.0 mph 83 % 0.00 in
18:24 43.9 °F 39.1 °F 30.00 in WNW 1.2 mph 3.5 mph 83 % 0.00 in
18:29 43.8 °F 39.0 °F 30.01 in WNW 0.5 mph 2.3 mph 83 % 0.00 in
18:34 43.8 °F 39.0 °F 30.01 in WNW 1.9 mph 3.5 mph 83 % 0.00 in
18:39 43.7 °F 38.9 °F 30.01 in WNW 0.7 mph 2.0 mph 83 % 0.00 in
18:44 43.7 °F 38.9 °F 30.01 in WNW 1.2 mph 2.3 mph 83 % 0.00 in
18:49 43.6 °F 38.8 °F 30.00 in Calm   1.2 mph 83 % 0.00 in
18:54 43.5 °F 39.0 °F 30.01 in West 1.1 mph 2.0 mph 84 % 0.00 in
18:59 43.4 °F 38.6 °F 30.00 in West 0.1 mph   83 % 0.00 in
19:04 43.4 °F 38.6 °F 30.01 in West 1.5 mph 3.0 mph 83 % 0.00 in
19:09 43.3 °F 38.5 °F 30.01 in West 1.8 mph 4.0 mph 83 % 0.00 in
19:15 43.2 °F 38.4 °F 30.01 in West 0.8 mph 1.2 mph 83 % 0.00 in
19:20 43.1 °F 38.3 °F 30.00 in Calm   2.0 mph 83 % 0.00 in
19:25 43.0 °F 37.6 °F 30.01 in WNW 0.7 mph 3.5 mph 81 % 0.00 in
19:30 43.0 °F 37.5 °F 30.01 in WNW 2.0 mph 5.0 mph 81 % 0.00 in
19:40 43.0 °F 37.3 °F 30.00 in WNW 2.0 mph 5.0 mph 80 % 0.00 in
19:45 43.1 °F 37.3 °F 30.00 in WNW 1.0 mph 6.0 mph 80 % 0.00 in
19:50 43.1 °F 37.3 °F 30.00 in Calm   6.0 mph 80 % 0.00 in
19:55 43.1 °F 37.3 °F 30.00 in NW 1.2 mph 2.3 mph 80 % 0.00 in
20:00 43.1 °F 37.0 °F 30.00 in NW 2.4 mph 6.9 mph 79 % 0.00 in
20:05 43.2 °F 37.4 °F 30.00 in North 0.9 mph 4.6 mph 80 % 0.00 in
20:10 43.2 °F 37.1 °F 30.00 in NW 2.8 mph 4.6 mph 79 % 0.00 in
20:15 43.2 °F 37.1 °F 30.00 in WNW 1.5 mph 3.5 mph 79 % 0.00 in
20:20 43.2 °F 37.4 °F 30.00 in WNW 0.2 mph 3.5 mph 80 % 0.00 in
20:25 43.2 °F 37.4 °F 30.00 in WNW 0.7 mph 2.3 mph 80 % 0.00 in
20:30 43.2 °F 37.4 °F 30.00 in Calm   1.2 mph 80 % 0.00 in
20:35 43.2 °F 37.4 °F 29.99 in WNW 0.9 mph 2.3 mph 80 % 0.00 in
20:40 43.1 °F 37.3 °F 30.00 in WNW 0.3 mph 2.3 mph 80 % 0.00 in
20:46 43.0 °F 37.3 °F 30.00 in WNW 0.9 mph 3.5 mph 80 % 0.00 in
20:51 42.9 °F 37.2 °F 30.00 in Calm     80 % 0.00 in
20:56 42.9 °F 37.2 °F 30.00 in WNW 0.1 mph 1.2 mph 80 % 0.00 in
21:01 42.8 °F 37.4 °F 30.00 in Calm     81 % 0.00 in
21:06 42.7 °F 37.3 °F 30.00 in WNW 0.5 mph 2.3 mph 81 % 0.00 in
21:11 42.5 °F 37.1 °F 30.00 in WNW 0.4 mph 1.2 mph 81 % 0.00 in
21:16 42.4 °F 37.3 °F 29.99 in Calm     82 % 0.00 in
21:21 42.2 °F 37.1 °F 29.99 in Calm     82 % 0.00 in
21:26 42.0 °F 37.2 °F 29.99 in Calm     83 % 0.00 in
21:31 41.8 °F 37.0 °F 29.99 in Calm   1.2 mph 83 % 0.00 in
21:36 41.5 °F 36.7 °F 29.99 in Calm     83 % 0.00 in
21:42 41.3 °F 36.8 °F 29.99 in WNW 0.1 mph 1.2 mph 84 % 0.00 in
21:47 41.0 °F 36.5 °F 29.99 in Calm     84 % 0.00 in
21:52 40.7 °F 36.2 °F 29.99 in Calm     84 % 0.00 in
21:57 40.5 °F 36.3 °F 29.98 in Calm     85 % 0.00 in
22:02 40.2 °F 36.1 °F 29.99 in WNW 0.5 mph 2.3 mph 85 % 0.00 in
22:07 39.9 °F 36.1 °F 29.99 in WNW 0.2 mph 1.2 mph 86 % 0.00 in
22:12 39.7 °F 35.9 °F 29.99 in Calm     86 % 0.00 in
22:17 39.4 °F 35.9 °F 29.99 in WNW 0.8 mph 2.0 mph 87 % 0.00 in
22:22 39.2 °F 35.9 °F 30.00 in WNW 1.6 mph 2.3 mph 88 % 0.00 in
22:27 39.1 °F 35.8 °F 30.00 in WNW 0.1 mph 1.2 mph 88 % 0.00 in
22:33 38.9 °F 35.9 °F 30.00 in WNW 0.5 mph 1.2 mph 89 % 0.00 in
22:38 38.8 °F 35.8 °F 30.00 in WNW 0.8 mph 2.3 mph 89 % 0.00 in
22:43 38.7 °F 35.7 °F 30.00 in WNW 1.5 mph 2.3 mph 89 % 0.00 in
22:48 38.6 °F 35.6 °F 30.00 in WNW 0.4 mph 1.2 mph 89 % 0.00 in
22:53 38.6 °F 35.9 °F 29.99 in Calm   1.0 mph 90 % 0.00 in
22:58 38.5 °F 35.8 °F 30.00 in WNW 0.1 mph 1.2 mph 90 % 0.00 in
23:03 38.5 °F 35.8 °F 30.00 in WNW 1.4 mph 2.3 mph 90 % 0.00 in
23:08 38.4 °F 35.7 °F 29.99 in WNW 0.1 mph 1.2 mph 90 % 0.00 in
23:13 38.4 °F 36.0 °F 29.99 in Calm   1.2 mph 91 % 0.00 in
23:18 38.4 °F 36.0 °F 29.99 in WNW 0.1 mph   91 % 0.00 in
23:24 38.4 °F 36.0 °F 29.99 in Calm     91 % 0.00 in
23:29 38.3 °F 35.9 °F 29.99 in WNW 0.7 mph 1.2 mph 91 % 0.00 in
23:34 38.3 °F 35.9 °F 29.99 in Calm     91 % 0.00 in
23:39 38.3 °F 35.9 °F 29.98 in Calm   1.2 mph 91 % 0.00 in
23:44 38.3 °F 35.9 °F 29.98 in Calm   1.2 mph 91 % 0.00 in
23:49 38.2 °F 35.8 °F 29.98 in Calm     91 % 0.00 in
23:54 38.2 °F 35.8 °F 29.98 in Calm     91 % 0.00 in
23:59 38.2 °F 35.8 °F 29.98 in Calm     91 % 0.00 in
Crab Meadow Weather
Compliments of Weather Underground - 3 mb

Script developed by  Jim McMurry - jmcmurry@mwt.net Adapted for the template by  Wim van der Kuil - Leuven-Template.eu

Weather Terms: Squall line - A line of thunderstorms or squalls which may extend over several hundred miles.